GFSSGP_700_temp_000.txt.gz
Temp
9 8 9 9 9 8 10 10 10 9 11 10 11 10 10 9 10 9 9 9 8 8 7 7 7 7 7 8 8 7 7 7 7 7 7 7 6 6 6 6 6 6 5 5 4 4 3 4 3
9 8 8 8 8 9 9 10 10 9 8 9 11 10 10 10 9 10 9 8 8 8 7 7 7 7 7 7 7 7 7 7 7 7 7 7 7 7 6 6 6 6 5 5 4 4 4 4 4
9 8 7 8 9 9 10 10 8 8 8 8 10 9 10 9 8 9 8 8 8 8 7 7 7 7 7 7 7 7 7 7 7 7 7 7 7 7 7 6 6 6 5 5 4 4 4 4 4
9 8 8 8 9 10 9 10 9 8 9 9 9 10 9 8 7 8 7 7 8 7 7 7 7 7 7 7 7 7 7 7 7 7 7 7 7 6 6 6 5 5 5 4 4 4 3 3 3
9 8 8 8 9 10 10 10 10 9 9 9 9 8 8 8 7 7 7 7 7 7 7 7 7 7 7 7 7 7 6 6 6 6 7 7 6 6 6 5 5 5 4 4 4 4 3 3 3
7 8 8 9 9 9 9 9 9 9 9 8 9 8 8 8 7 7 7 7 7 7 7 7 7 7 7 7 6 6 6 6 7 6 6 6 6 5 5 5 5 4 4 3 3 3 3 3 3
8 8 8 8 9 8 7 10 9 9 9 8 8 8 8 8 7 7 7 7 7 7 7 7 7 7 7 6 6 6 6 6 6 6 6 5 5 5 5 5 4 4 3 3 3 3 3 3 3
8 8 9 9 8 9 8 9 9 9 8 8 7 8 8 7 7 7 6 6 6 7 6 6 6 6 6 6 6 6 6 6 6 5 5 5 5 4 4 4 4 4 4 4 3 3 3 3 2
8 9 9 9 9 8 9 10 8 8 9 7 8 8 8 7 6 6 6 6 6 6 6 6 6 5 6 6 6 5 5 5 5 5 5 5 4 4 4 4 4 4 4 3 3 3 3 2 2
8 9 10 9 9 9 9 9 9 9 8 8 8 8 8 7 6 6 6 6 6 6 5 5 5 5 5 5 5 5 5 5 5 4 4 4 4 4 4 4 4 3 3 3 3 3 3 3 2
9 9 10 10 9 9 9 10 9 9 9 9 8 8 8 7 6 6 6 7 6 6 5 5 5 5 5 5 5 4 5 4 4 4 4 4 4 4 3 3 3 3 2 2 2 2 2 2 2
9 9 9 9 9 9 9 9 8 8 9 8 8 8 7 7 6 7 7 6 5 5 5 5 5 4 4 4 5 4 4 4 4 4 4 4 3 3 3 2 2 2 2 2 2 1 2 2 2
9 10 9 9 9 9 9 9 8 8 8 8 8 7 7 7 6 7 6 6 4 5 5 4 4 4 4 4 4 4 4 4 4 3 3 3 3 2 2 2 2 1 1 1 1 1 1 1 1
9 9 9 9 9 8 8 8 8 8 8 8 8 7 7 7 6 7 7 6 5 5 5 5 5 5 4 3 4 3 3 3 3 3 2 2 3 2 2 1 1 1 1 0 0 0 0 0 1
9 9 9 9 9 9 9 8 8 8 8 8 8 7 7 7 7 7 7 6 6 5 5 5 4 4 4 4 4 3 3 2 2 2 2 2 2 2 2 1 1 1 -0 0 0 -0 -1 -1 -0
9 9 8 9 8 8 9 9 8 8 8 8 8 8 7 7 7 6 6 5 5 5 4 4 4 4 4 4 4 3 3 3 2 2 2 2 1 1 0 -0 -1 -1 -1 -1 -1 -1 -0 -1 -1
9 9 9 9 9 9 8 9 9 8 8 8 8 7 7 6 6 6 5 5 4 4 4 4 3 3 3 3 3 4 3 2 2 2 1 1 0 -1 -1 -2 -1 -1 -2 -1 -1 -1 -1 -1 -1
9 9 9 9 9 9 8 9 8 8 8 8 8 7 7 7 6 5 5 4 4 4 4 4 3 3 3 3 3 3 2 1 1 1 0 0 -0 -1 -2 -2 -2 -2 -2 -1 -1 -2 -2 -2 -2
9 10 10 9 9 9 8 8 8 8 8 8 8 8 7 7 6 6 5 4 4 4 4 3 3 3 3 2 2 1 1 1 0 0 -0 -1 -2 -2 -2 -2 -1 -2 -2 -2 -3 -3 -3 -3 -3
9 9 9 9 9 9 8 7 8 8 8 8 8 7 7 7 6 6 5 5 4 4 4 3 3 2 1 1 0 1 0 0 -0 -1 -2 -1 -1 -2 -2 -2 -2 -2 -3 -3 -4 -4 -4 -4 -4
9 9 9 8 8 8 7 6 7 6 7 7 7 7 6 6 5 5 5 5 4 3 3 2 2 1 1 1 1 1 -0 -1 -0 -1 -1 -1 -1 -1 -2 -2 -3 -4 -4 -5 -6 -6 -6 -6 -6
8 8 8 8 9 8 8 4 3 4 6 6 7 7 7 6 6 5 5 4 3 2 2 1 1 1 1 1 0 0 -0 -0 -1 -1 -1 -1 -2 -2 -2 -3 -5 -5 -6 -6 -6 -6 -7 -7 -7
8 8 8 8 8 8 7 5 3 4 5 5 5 5 6 6 5 4 4 3 2 2 1 1 1 1 1 0 0 0 0 -1 -1 -1 -2 -2 -2 -3 -5 -6 -7 -7 -7 -7 -7 -7 -7 -7 -7
7 7 7 7 7 6 7 6 3 4 5 4 5 4 4 4 3 3 3 3 2 1 1 1 1 1 1 1 0 -0 -1 -1 -1 -2 -3 -4 -5 -5 -5 -6 -6 -7 -7 -6 -7 -7 -7 -7 -8
7 8 7 4 2 2 6 6 4 4 4 4 4 3 3 3 2 1 1 2 2 1 2 1 1 -1 -1 -1 -2 -1 -2 -2 -3 -4 -6 -6 -6 -6 -6 -7 -7 -7 -7 -7 -7 -8 -9 -9 -10
7 7 6 3 -0 4 5 3 3 3 3 3 2 2 2 2 1 -0 0 1 0 -0 -0 -1 -2 -2 -3 -3 -3 -4 -4 -5 -5 -5 -6 -6 -6 -8 -7 -8 -8 -9 -9 -9 -9 -10 -10 -10 -12
6 6 6 6 4 4 4 3 3 3 3 2 2 2 1 1 -0 0 0 0 0 -0 -1 -2 -2 -3 -3 -3 -3 -4 -5 -5 -5 -5 -6 -6 -7 -8 -8 -10 -10 -10 -11 -11 -11 -11 -11 -12 -13
6 6 6 6 1 0 3 3 4 3 3 2 2 2 1 0 0 -0 0 0 -0 -1 -2 -3 -3 -2 -3 -3 -3 -5 -6 -7 -7 -7 -7 -8 -9 -9 -10 -10 -11 -11 -11 -11 -11 -12 -12 -13 -14
6 6 6 5 4 0 -3 3 4 3 3 2 2 2 1 0 -0 -0 -0 -1 -1 -2 -2 -2 -2 -3 -3 -3 -4 -5 -6 -7 -7 -7 -8 -9 -9 -9 -11 -12 -11 -12 -11 -11 -12 -13 -13 -14 -15
5 5 5 5 3 3 2 3 3 3 3 2 2 1 1 0 0 -0 -0 -0 -1 -1 -2 -2 -3 -3 -3 -4 -6 -7 -8 -8 -9 -9 -9 -9 -10 -11 -11 -12 -12 -12 -12 -13 -13 -14 -14 -15 -15

GFSSGP_700_temp_003.txt.gz
Temp
9 9 9 8 8 8 9 9 9 9 9 9 8 9 10 9 10 9 9 9 9 8 8 7 7 6 6 7 7 7 7 7 7 7 7 7 7 6 6 6 6 6 5 5 5 4 4 4 4
8 9 9 8 8 8 9 9 9 9 9 8 8 9 9 9 9 9 9 9 9 9 8 7 7 6 7 7 7 7 7 7 7 7 7 7 6 6 6 6 6 5 5 5 4 4 4 4 4
8 8 7 7 8 8 9 9 10 10 9 8 8 8 8 8 8 9 9 9 9 8 7 7 7 7 7 7 7 7 7 7 7 7 6 6 6 6 6 5 5 5 5 4 4 4 4 4 4
8 8 7 8 9 9 9 9 10 9 9 9 6 8 8 8 7 8 9 8 8 8 7 7 7 7 7 6 7 7 7 7 6 6 6 6 6 5 5 5 5 5 5 4 4 4 4 3 4
8 8 7 9 9 9 9 9 9 9 9 9 8 8 8 7 6 7 8 8 8 7 7 6 6 6 7 7 6 6 6 6 6 6 6 6 5 5 5 5 5 4 4 4 4 4 4 4 3
7 7 8 9 9 9 9 9 9 9 8 9 9 8 8 7 6 7 7 7 7 6 7 7 7 7 6 6 6 6 6 6 6 6 6 6 5 5 5 4 4 4 4 4 4 3 3 3 3
7 8 8 8 9 9 9 9 9 9 9 9 8 8 7 7 6 7 7 7 6 6 7 7 6 6 7 6 6 6 6 6 6 6 6 5 5 5 4 4 4 4 3 3 3 3 3 3 3
8 8 8 8 8 8 8 9 9 9 9 8 8 8 8 7 6 6 6 6 6 6 6 6 6 6 6 6 6 6 6 6 6 5 5 5 5 4 4 4 4 3 3 3 3 3 3 2 2
8 8 8 8 8 6 8 8 9 9 9 8 8 8 8 7 6 6 6 6 6 6 6 6 6 6 6 6 6 6 5 5 5 5 5 5 4 4 4 4 3 3 3 3 3 3 2 2 2
8 8 9 9 8 8 8 9 9 8 8 8 8 8 8 8 7 6 6 6 6 6 6 5 6 6 5 5 5 5 5 5 5 5 5 4 4 4 4 4 3 3 3 2 2 2 2 2 2
8 9 9 9 9 8 8 9 9 8 8 8 8 7 7 7 7 6 6 6 6 5 5 5 5 5 5 5 5 5 4 4 4 5 4 4 4 4 4 3 3 2 2 2 2 1 1 1 1
8 9 9 9 9 9 9 9 8 8 8 8 8 8 8 7 7 7 7 7 6 5 5 5 5 5 5 5 5 4 4 4 4 4 4 4 4 3 3 3 2 2 1 1 1 1 1 1 1
9 9 9 9 9 9 9 8 8 8 8 8 8 7 7 7 7 7 6 6 6 6 5 5 5 5 4 4 5 5 4 4 4 4 3 3 3 2 2 2 1 1 1 0 0 0 0 0 0
9 9 9 9 9 8 8 8 8 8 8 8 7 7 7 7 6 6 6 6 6 6 6 6 5 4 4 4 3 4 4 4 4 3 3 2 2 2 1 1 1 0 0 -0 -0 -1 -1 -1 -0
9 9 8 8 8 8 8 8 8 8 8 8 8 7 7 6 6 6 5 6 5 5 5 5 4 4 4 4 3 4 4 3 3 2 2 1 1 1 0 1 1 0 -0 -1 -1 -1 -1 -1 -0
9 9 8 8 8 8 8 8 8 8 8 8 7 7 6 6 6 6 5 5 5 5 4 4 4 3 3 2 2 3 2 2 2 1 1 1 0 0 0 0 -0 -1 -1 -2 -2 -2 -1 -1 -1
9 9 8 8 8 8 8 8 8 8 8 8 7 7 7 6 6 6 5 5 4 4 3 3 3 3 3 2 2 2 2 2 1 1 0 0 0 0 -0 -1 -2 -1 -2 -2 -2 -2 -1 -2 -2
9 9 9 8 9 8 8 8 8 8 8 7 7 7 7 7 6 6 5 5 4 4 3 3 3 3 2 2 2 2 2 1 1 0 0 -0 -1 -1 -1 -2 -2 -2 -2 -2 -2 -2 -2 -3 -3
9 9 9 9 9 9 8 8 8 7 7 7 7 7 7 7 7 6 5 5 4 4 4 3 3 2 2 2 2 1 1 1 0 -0 -1 -1 -1 -2 -2 -1 -2 -2 -2 -2 -2 -3 -4 -4 -4
9 9 8 8 8 8 8 7 7 7 7 7 7 7 7 7 6 6 6 5 5 4 3 3 2 2 2 1 1 1 0 -0 -1 -1 -2 -2 -2 -2 -2 -2 -2 -1 -2 -2 -4 -5 -5 -5 -5
9 9 9 8 7 8 7 5 5 6 7 6 6 6 6 5 5 5 5 4 4 4 3 2 2 1 0 0 -1 -1 -1 -1 -1 -2 -2 -2 -2 -2 -1 -1 -2 -3 -4 -5 -5 -5 -6 -6 -6
8 8 8 8 8 6 7 2 3 4 4 4 5 4 5 5 5 5 5 4 3 2 2 1 1 0 0 -0 -1 -1 -1 -1 -1 -1 -1 -1 -1 -1 -2 -3 -4 -5 -6 -6 -7 -6 -7 -7 -7
7 8 8 7 7 6 6 5 3 3 4 4 5 4 4 4 5 4 4 3 3 2 1 1 0 0 0 -0 -0 -0 -0 -0 -1 -1 -1 -1 -2 -2 -4 -5 -6 -6 -7 -7 -8 -8 -7 -7 -7
6 7 7 6 6 5 5 5 2 3 5 4 5 5 4 4 4 3 3 3 2 2 1 1 0 0 -0 -0 -0 -1 -1 -1 -1 -2 -2 -3 -4 -4 -6 -6 -6 -6 -8 -8 -8 -8 -8 -8 -8
7 7 6 4 1 1 5 5 4 4 3 4 5 4 3 3 2 3 3 2 1 1 0 0 -0 -0 -0 -1 -2 -2 -2 -3 -3 -3 -5 -6 -6 -6 -6 -6 -7 -8 -8 -9 -10 -9 -10 -10 -10
7 7 7 3 -1 3 4 4 4 3 3 3 3 3 2 3 2 2 2 1 1 0 -0 -0 -1 -1 -2 -2 -2 -2 -3 -4 -5 -6 -7 -7 -7 -7 -7 -8 -9 -10 -10 -11 -11 -11 -11 -11 -11
6 6 6 5 3 3 3 3 3 3 3 2 2 2 2 2 2 1 0 -0 -0 -0 -1 -1 -1 -2 -2 -2 -2 -3 -4 -5 -5 -5 -6 -6 -7 -7 -8 -10 -10 -10 -10 -12 -11 -12 -12 -11 -12
6 6 6 6 1 -0 2 2 3 3 3 3 2 2 2 1 1 0 0 -0 -1 -1 -1 -2 -2 -2 -2 -3 -4 -4 -5 -6 -6 -6 -7 -8 -8 -10 -11 -11 -11 -10 -11 -12 -12 -13 -12 -13 -12
5 6 5 5 4 -1 -3 3 4 3 3 3 2 2 1 1 1 0 -1 -1 -1 -2 -2 -2 -2 -3 -3 -4 -4 -5 -6 -7 -7 -7 -8 -8 -9 -10 -10 -11 -11 -12 -13 -12 -13 -13 -14 -13 -14
5 5 5 5 3 3 2 4 4 3 2 2 2 2 2 1 0 -0 -1 -2 -2 -3 -2 -3 -3 -4 -4 -5 -5 -6 -7 -7 -7 -7 -8 -8 -9 -10 -11 -12 -13 -13 -14 -14 -13 -14 -14 -14 -15

GFSSGP_700_temp_006.txt.gz
Temp
8 9 9 9 8 8 8 9 10 8 8 7 7 7 8 8 8 8 8 8 8 7 7 7 7 7 6 6 6 6 6 6 6 6 6 6 6 6 6 6 6 5 5 5 5 5 4 4 4
8 8 9 8 8 8 9 10 9 9 8 7 8 7 7 6 6 7 7 8 7 7 7 7 7 6 6 6 6 6 6 6 6 6 6 6 6 6 6 5 5 5 5 5 4 4 4 4 4
8 8 8 8 8 8 9 8 8 8 7 7 7 6 5 5 7 8 7 7 8 8 7 7 7 6 6 6 6 6 6 6 6 6 6 6 5 5 5 5 5 5 5 4 4 4 4 4 4
8 8 8 8 8 9 9 8 8 7 6 6 7 6 5 6 7 7 7 8 8 7 7 7 6 6 6 6 7 6 6 6 6 6 6 5 5 5 5 5 5 5 5 4 4 4 4 4 4
7 8 8 8 9 8 9 8 8 7 7 6 7 8 6 7 7 7 8 8 7 7 6 6 6 6 6 7 6 6 6 6 6 6 5 5 5 5 4 4 4 4 4 4 4 3 3 3 3
8 8 7 8 8 8 9 8 8 8 7 8 8 7 7 7 7 7 7 7 7 6 6 6 6 6 7 6 6 6 6 6 6 6 5 5 5 5 5 4 4 4 4 3 3 3 3 3 2
7 8 8 8 8 8 9 8 8 7 7 8 8 8 7 7 7 7 7 6 6 6 6 6 6 6 6 6 6 6 6 6 5 5 5 5 5 4 4 4 4 3 3 3 3 2 2 2 2
7 7 8 8 8 7 8 8 7 8 8 8 8 8 8 7 6 7 6 6 6 6 6 6 6 6 6 6 6 6 5 5 5 5 5 5 4 4 4 4 3 3 3 3 2 2 2 2 2
7 8 8 7 8 8 7 7 8 8 8 8 8 8 8 7 6 6 6 6 6 6 6 6 6 6 6 6 6 5 5 5 5 5 5 4 4 4 4 4 3 3 3 2 2 2 2 2 1
7 8 8 8 8 8 6 8 7 8 7 8 8 8 8 7 6 6 6 6 6 6 6 6 6 6 5 5 5 5 5 5 5 4 4 4 4 4 3 3 3 3 2 2 2 2 2 1 1
8 8 8 8 8 8 8 7 8 8 8 7 7 7 7 7 6 6 6 5 5 6 6 6 6 5 5 5 5 5 5 4 4 4 4 4 3 3 3 3 2 2 2 2 2 1 1 1 1
8 8 9 8 8 8 8 8 8 8 7 8 7 7 7 7 7 7 6 6 5 5 5 6 6 5 4 5 5 4 4 4 4 4 3 3 3 2 2 2 2 1 1 1 1 1 1 1 1
8 9 9 9 8 8 8 8 8 8 7 8 7 7 7 7 7 7 6 5 5 5 5 5 4 4 4 4 4 3 3 3 3 3 3 3 2 2 1 1 1 1 1 1 0 -0 -0 -0 -1
8 8 9 9 8 8 8 8 8 8 8 7 7 7 6 6 6 6 6 5 5 5 4 4 3 3 3 3 3 2 2 2 2 2 2 2 2 1 1 1 1 0 0 -0 -1 -1 -1 -1 -1
9 8 9 9 8 8 8 8 8 8 8 8 7 7 6 6 6 5 5 5 4 4 4 4 3 3 3 3 2 1 0 1 1 2 2 1 1 1 0 0 -0 -0 -1 -1 -2 -2 -1 -2 -1
8 8 8 7 8 8 8 8 7 7 8 7 7 7 6 6 5 5 5 5 5 4 4 4 3 3 2 1 1 1 0 1 1 1 1 1 1 0 -0 -1 -1 -2 -2 -2 -2 -2 -2 -2 -2
8 8 8 8 8 8 8 8 8 8 7 7 7 7 6 6 5 5 5 5 5 4 4 3 3 3 2 1 1 1 2 2 1 1 0 0 -0 -1 -1 -2 -2 -2 -2 -2 -2 -2 -2 -2 -1
8 8 8 8 8 8 8 8 8 8 7 7 7 7 7 6 5 5 5 4 4 4 4 4 3 2 2 2 1 1 1 1 0 -0 -1 -1 -1 -1 -1 -1 -2 -2 -2 -2 -2 -2 -2 -2 -2
8 9 9 8 8 8 8 8 7 7 7 7 7 7 7 6 6 5 5 4 4 4 3 3 2 2 2 1 1 1 0 -0 -0 -1 -1 -1 -2 -2 -2 -2 -2 -2 -2 -2 -2 -2 -2 -3 -3
9 9 8 7 8 8 7 8 7 7 7 7 7 7 6 6 6 6 5 5 5 4 3 3 2 2 1 1 1 -0 -1 -1 -1 -1 -1 -2 -2 -2 -2 -2 -2 -2 -2 -2 -2 -3 -4 -5 -5
8 8 7 8 7 7 6 7 6 7 7 6 6 6 5 5 5 5 5 4 4 4 4 3 2 2 1 1 0 -0 -1 -1 -1 -1 -1 -1 -1 -1 -1 -2 -2 -2 -2 -3 -4 -5 -6 -6 -7
8 7 7 8 8 6 6 3 4 5 5 5 4 4 4 4 4 4 4 4 4 4 2 2 1 1 0 -0 -1 -1 -1 -1 -1 -1 -1 -1 -1 -2 -2 -2 -3 -4 -5 -6 -7 -7 -7 -7 -8
7 7 7 7 7 6 6 6 4 3 4 4 4 3 3 4 4 4 4 3 3 3 2 1 1 0 -0 0 -0 -0 -0 -0 -1 -1 -1 -1 -2 -2 -3 -4 -5 -6 -6 -6 -7 -8 -8 -9 -9
7 6 6 6 6 4 6 5 3 5 6 4 4 4 3 3 3 3 2 1 2 2 1 0 0 -0 -0 -0 -1 -1 -2 -2 -2 -2 -3 -3 -4 -4 -4 -6 -7 -7 -7 -8 -8 -9 -10 -10 -10
6 7 5 3 1 0 4 4 6 6 5 4 4 3 3 3 3 3 3 2 2 1 1 0 -0 -1 -1 -2 -2 -2 -3 -3 -3 -3 -4 -4 -5 -6 -7 -7 -7 -8 -8 -9 -10 -10 -11 -12 -11
6 6 6 2 -1 2 4 4 5 6 4 3 3 2 3 3 3 3 3 2 1 1 0 -0 -1 -1 -2 -2 -2 -2 -2 -3 -3 -4 -4 -5 -6 -6 -7 -7 -7 -8 -9 -10 -11 -10 -12 -12 -12
6 6 6 5 3 2 3 3 4 5 3 3 3 3 3 3 3 3 2 2 1 0 -0 -1 -2 -3 -3 -3 -2 -2 -3 -3 -3 -4 -5 -6 -7 -7 -7 -8 -8 -10 -11 -12 -12 -12 -12 -13 -13
6 6 6 5 1 -0 1 2 4 4 3 3 3 3 3 3 2 2 2 1 1 -0 -1 -1 -2 -2 -3 -3 -3 -3 -3 -4 -5 -6 -6 -7 -7 -8 -8 -9 -11 -12 -12 -13 -13 -13 -14 -14 -14
5 5 5 5 4 -2 -4 2 4 4 4 4 4 3 2 2 2 2 1 0 -0 -1 -2 -2 -3 -3 -4 -3 -4 -4 -5 -6 -6 -7 -7 -8 -8 -8 -9 -10 -11 -13 -13 -13 -13 -14 -14 -15 -14
5 5 5 5 3 3 2 4 4 4 3 3 3 2 2 2 2 1 0 -0 -2 -2 -2 -3 -4 -4 -4 -4 -5 -6 -6 -7 -7 -8 -8 -8 -9 -9 -10 -11 -12 -13 -14 -14 -14 -15 -15 -14 -14

GFSSGP_700_temp_009.txt.gz
Temp
8 8 8 8 8 8 8 9 9 7 7 6 6 6 7 7 7 7 8 7 7 7 6 6 6 6 6 6 6 6 6 6 6 6 6 6 6 5 5 5 5 5 5 5 5 5 5 5 5
8 8 8 8 8 8 8 9 8 7 6 5 6 6 6 6 6 6 6 6 6 7 6 6 6 6 6 6 6 6 6 6 6 6 6 6 5 5 5 5 5 5 5 5 5 5 5 5 5
7 7 7 8 8 9 8 8 8 7 7 5 5 5 6 6 6 5 6 6 6 7 6 6 6 6 6 6 6 6 6 6 6 6 6 6 5 5 5 5 5 4 4 4 4 4 4 4 4
7 7 7 8 8 9 8 7 8 7 7 6 5 6 6 5 5 6 5 5 6 6 6 6 6 6 6 6 6 6 6 6 6 6 6 5 5 5 4 4 4 4 4 4 4 4 4 3 3
7 7 7 8 9 8 8 7 8 8 7 8 7 7 7 5 6 5 5 5 6 6 6 6 6 6 6 6 6 6 6 6 6 6 5 5 5 4 4 4 4 4 4 3 3 3 3 3 3
7 7 7 8 7 8 8 8 7 7 7 6 6 7 6 5 5 5 5 5 6 6 6 6 6 6 6 6 5 5 6 6 6 5 5 5 5 4 4 4 3 3 3 3 3 3 3 3 2
7 7 7 8 7 7 8 7 6 6 7 7 6 7 7 6 5 5 6 6 6 6 6 6 6 6 6 5 5 5 6 6 5 5 5 5 5 4 4 3 3 3 3 3 3 3 3 2 2
7 7 7 7 7 6 6 5 4 6 7 7 6 7 7 6 6 6 6 6 6 6 6 6 6 6 6 5 5 5 5 5 5 5 5 4 4 4 4 3 3 2 2 2 3 2 2 2 2
7 7 7 7 7 6 6 5 6 7 7 7 7 8 7 6 6 6 7 7 6 6 6 6 6 5 5 5 5 5 5 5 4 4 4 4 4 3 3 3 2 2 2 2 2 2 2 2 2
7 7 8 7 7 5 4 6 6 7 7 7 7 8 7 6 6 6 6 6 6 6 5 5 5 5 5 4 4 4 4 4 4 4 4 3 3 3 3 2 2 2 2 2 2 1 1 1 1
7 7 8 7 7 7 7 7 7 7 7 7 7 7 7 7 6 6 6 5 5 5 5 5 5 5 4 4 4 4 3 3 3 3 3 3 3 2 2 2 1 2 2 2 1 1 1 1 1
7 7 8 8 7 7 7 7 7 7 7 7 6 6 7 6 6 6 5 5 5 4 5 5 4 4 4 3 3 3 3 3 3 3 2 2 2 2 2 1 1 1 1 1 1 0 0 0 0
7 7 8 8 7 7 7 7 7 7 7 7 7 6 6 6 6 5 5 5 4 4 4 4 4 4 4 3 3 3 3 3 2 2 1 1 1 1 1 1 1 1 0 -0 -0 -0 -0 -1 -1
7 8 8 8 8 7 7 8 7 7 7 7 6 6 6 6 6 5 5 4 4 4 4 3 3 3 3 3 3 3 2 1 1 1 1 0 -0 1 1 1 0 0 -0 -1 -1 -1 -1 -2 -1
8 8 8 8 8 7 8 7 7 7 7 7 6 6 6 5 5 5 5 4 4 4 3 3 3 3 2 3 1 1 1 2 1 2 1 0 -0 0 0 -0 -0 -1 -1 -2 -2 -2 -2 -2 -2
8 8 8 7 7 7 8 7 7 7 7 7 6 6 6 6 5 5 5 4 4 3 3 3 3 3 3 2 2 1 0 1 1 1 0 -0 0 -1 -1 -1 -1 -1 -2 -2 -2 -2 -2 -2 -2
8 8 8 7 8 8 8 7 7 7 7 7 7 7 6 6 5 5 5 4 4 4 4 3 3 2 2 2 1 1 1 2 1 0 0 0 -1 -0 -1 -1 -2 -2 -2 -2 -2 -2 -2 -2 -2
8 8 8 7 7 7 8 8 7 7 7 7 7 7 6 6 5 5 5 4 4 4 4 4 3 2 2 2 1 1 1 1 0 1 -0 -1 -0 -1 -1 -2 -2 -2 -2 -2 -2 -2 -2 -2 -2
8 8 8 8 8 7 8 8 7 8 7 7 7 7 6 6 5 5 5 4 4 4 4 3 3 3 2 1 1 1 1 1 -0 -1 -1 -1 -1 -1 -2 -2 -2 -2 -2 -2 -2 -2 -2 -3 -3
8 8 8 8 8 8 8 8 8 7 7 7 7 6 6 6 5 5 5 5 4 4 3 3 3 2 1 1 1 0 -1 -1 -1 -1 -1 -1 -1 -1 -2 -2 -2 -2 -2 -3 -3 -4 -4 -4 -4
8 8 8 7 7 7 7 7 7 7 7 7 7 6 6 5 5 5 5 4 4 3 3 3 2 2 2 1 -0 -1 -1 -1 -1 -0 -0 -1 -1 -1 -1 -2 -3 -3 -4 -4 -4 -4 -5 -5 -5
8 8 8 8 6 6 7 6 6 7 7 6 6 5 5 4 4 4 4 4 4 3 3 3 2 1 0 -0 -1 -1 -1 -1 -1 -1 -1 -1 -1 -2 -2 -3 -3 -4 -4 -4 -5 -5 -6 -7 -7
7 7 7 7 7 7 6 6 5 5 6 6 5 4 4 4 4 4 3 2 3 3 3 2 1 0 0 0 -0 -0 -1 -1 -1 -2 -2 -2 -3 -3 -4 -4 -4 -5 -5 -6 -7 -7 -8 -9 -10
7 6 6 6 6 5 6 6 6 6 7 6 4 3 3 4 3 3 3 2 2 3 2 2 1 0 -0 -1 -1 -1 -2 -2 -2 -2 -3 -3 -3 -4 -5 -5 -6 -6 -6 -7 -8 -9 -10 -10 -11
6 6 5 5 4 5 5 4 6 6 6 5 4 4 3 3 3 3 3 3 2 2 1 1 0 -0 -1 -2 -2 -3 -3 -2 -2 -3 -3 -4 -4 -5 -5 -6 -7 -7 -8 -8 -9 -11 -11 -11 -11
6 6 6 4 4 5 3 4 6 6 6 4 3 3 3 3 3 3 3 2 2 2 1 0 -0 -1 -1 -2 -3 -3 -3 -2 -3 -3 -4 -4 -5 -6 -7 -7 -7 -8 -8 -9 -11 -11 -12 -12 -12
6 5 6 5 3 3 4 4 5 6 6 4 3 3 3 3 3 3 2 2 2 1 0 -0 -1 -1 -2 -2 -2 -3 -2 -3 -4 -4 -5 -6 -6 -7 -7 -7 -8 -9 -10 -11 -12 -12 -13 -13 -14
6 5 5 5 3 3 3 3 5 5 6 4 3 3 3 3 3 2 2 2 1 1 0 -0 -1 -2 -2 -3 -3 -3 -4 -4 -5 -5 -6 -7 -7 -7 -8 -8 -9 -10 -12 -13 -13 -13 -13 -14 -15
5 5 5 5 4 3 2 4 5 5 4 5 4 4 3 3 2 2 2 1 1 -0 -1 -1 -2 -2 -2 -3 -4 -4 -5 -5 -5 -6 -7 -7 -8 -8 -9 -9 -11 -12 -13 -13 -13 -14 -14 -15 -15
5 5 5 5 3 3 2 4 5 5 4 4 3 3 3 2 2 2 2 1 -0 -1 -1 -2 -2 -3 -3 -4 -5 -5 -5 -6 -6 -7 -8 -8 -9 -9 -10 -11 -12 -12 -13 -14 -15 -15 -15 -15 -15

GFSSGP_700_temp_012.txt.gz
Temp
8 8 8 8 8 9 11 11 9 7 7 5 5 6 7 7 7 8 8 8 7 7 6 7 7 6 6 6 6 6 6 6 6 6 6 6 6 6 5 5 5 5 5 5 4 5 5 5 5
8 8 8 8 8 11 12 10 9 7 7 7 6 5 5 6 7 7 6 6 6 6 6 6 6 6 6 5 5 5 5 5 6 6 6 6 6 5 5 5 5 4 4 4 4 4 4 4 5
8 8 7 8 9 10 11 9 8 6 7 7 6 5 5 5 5 6 6 6 6 5 6 6 6 6 5 5 5 5 5 5 6 6 5 5 5 5 5 5 5 4 4 4 4 4 4 4 4
7 7 7 8 10 10 9 8 7 6 7 7 7 5 5 5 6 5 5 6 6 4 5 6 6 5 5 5 5 5 5 5 5 5 5 5 5 5 4 4 4 4 4 4 4 4 4 3 3
7 6 8 8 9 9 8 8 7 7 7 7 6 6 5 5 4 5 6 5 6 5 5 5 5 5 5 5 5 5 5 5 5 5 5 5 5 4 4 4 4 4 3 3 3 3 3 3 3
6 7 8 10 9 8 8 8 7 6 6 7 5 6 5 5 6 5 5 5 4 5 5 5 5 5 5 5 5 5 5 5 5 5 5 5 4 4 4 4 3 3 3 3 3 3 3 3 3
6 7 9 9 9 7 7 6 5 6 5 6 6 6 6 5 4 5 5 5 5 5 5 5 5 5 5 5 5 5 5 5 5 4 4 4 4 4 3 3 3 3 3 3 3 2 2 2 2
6 7 8 9 8 6 6 5 5 5 5 6 6 6 6 6 5 5 4 5 5 5 5 5 5 5 5 5 4 5 5 4 4 4 4 3 3 3 3 3 2 2 2 2 2 2 2 2 2
7 7 9 8 7 5 6 5 6 5 5 6 7 6 6 5 5 5 5 5 5 5 5 5 4 5 5 4 5 4 4 4 4 3 3 3 3 3 3 2 2 2 2 2 2 2 2 2 2
6 8 9 8 7 6 6 6 4 6 6 6 6 7 6 6 6 6 6 6 6 5 5 5 5 4 4 4 4 4 4 3 3 3 3 3 3 2 2 2 2 2 2 2 2 2 1 1 1
6 8 7 7 7 7 6 6 6 5 6 6 6 7 6 6 6 6 5 5 5 5 4 4 4 4 4 4 4 4 3 3 3 3 3 2 2 2 2 2 1 1 1 1 1 1 1 1 1
7 7 7 7 8 7 7 7 7 7 7 7 7 6 6 6 5 5 5 5 4 4 4 4 4 4 4 4 4 3 3 3 3 3 2 2 1 1 1 1 1 1 1 1 1 1 1 0 0
7 7 7 7 7 7 7 7 7 7 7 7 6 6 6 5 5 5 5 4 4 4 4 4 4 4 4 4 3 3 3 2 2 2 2 2 1 0 0 1 0 0 0 0 -0 0 -0 -0 -1
7 8 8 8 7 7 7 7 7 7 7 6 6 5 5 5 5 4 4 4 4 4 4 4 4 4 3 3 3 2 2 1 1 2 1 2 1 -0 -0 -1 -0 0 0 -0 -0 -1 -1 -2 -2
7 8 8 7 7 7 7 7 7 7 7 6 6 6 5 5 5 5 4 4 4 4 4 4 3 3 3 3 2 2 0 -0 2 3 3 2 0 0 -1 -1 -1 -1 -0 -0 -1 -1 -2 -2 -2
7 8 8 7 7 7 7 8 7 7 7 6 6 6 6 5 5 5 5 5 4 4 4 3 3 3 2 2 1 0 -0 1 1 1 1 0 0 -0 -0 -1 -1 -1 -1 -1 -1 -1 -2 -2 -2
7 9 8 7 8 7 8 7 7 7 7 6 6 6 6 5 5 5 5 5 4 4 4 4 3 2 2 2 2 1 0 1 1 1 1 1 0 0 -0 -0 -0 -1 -1 -1 -2 -2 -2 -2 -2
9 8 8 8 7 7 7 7 7 7 7 7 6 6 6 6 5 5 5 5 4 4 4 3 3 2 2 2 1 1 1 1 1 1 1 0 -0 -0 -1 -1 -1 -2 -2 -2 -2 -2 -2 -2 -2
8 9 8 7 8 7 7 7 7 7 7 7 7 6 6 6 6 5 5 5 4 4 4 4 3 3 2 2 1 1 1 1 0 -1 -1 -1 -1 -1 -1 -2 -2 -2 -2 -2 -2 -3 -3 -3 -4
8 8 8 8 8 8 8 8 8 8 8 7 7 7 6 6 6 5 5 5 4 4 4 3 3 3 2 1 1 1 1 -0 -1 -1 -1 -1 -1 -1 -1 -2 -2 -2 -3 -3 -3 -3 -4 -5 -5
8 8 8 8 8 8 7 7 8 8 8 7 7 7 7 6 6 5 5 5 4 3 3 3 3 2 2 2 1 0 -1 -1 -1 -1 -1 -1 -1 -2 -2 -2 -3 -3 -3 -4 -4 -4 -4 -4 -5
8 8 8 8 7 8 7 10 7 8 8 8 7 7 7 6 6 5 4 4 4 3 3 3 2 2 2 1 1 0 -1 -1 -1 -2 -1 -1 -2 -2 -3 -3 -3 -4 -4 -4 -5 -5 -5 -6 -6
7 8 8 7 7 7 7 8 7 7 7 7 7 7 6 6 4 4 4 3 3 3 3 2 2 2 1 0 -0 -0 -1 -1 -1 -2 -2 -2 -3 -3 -3 -4 -4 -5 -5 -5 -6 -6 -7 -8 -8
7 7 7 6 7 8 8 8 9 6 7 6 7 6 5 5 4 4 3 3 3 3 2 2 1 1 0 -0 -0 -1 -1 -2 -2 -2 -2 -3 -3 -4 -4 -5 -5 -6 -6 -7 -7 -8 -9 -10 -11
6 7 8 8 8 8 6 6 8 7 7 5 6 6 5 4 4 3 3 3 3 2 2 1 1 1 0 -0 -1 -1 -2 -2 -3 -2 -3 -3 -4 -4 -5 -6 -6 -7 -8 -8 -9 -10 -11 -11 -12
6 7 8 7 7 9 4 7 8 7 7 6 5 4 4 4 3 3 3 3 2 2 1 1 0 0 -0 -1 -1 -2 -2 -3 -3 -3 -4 -4 -5 -5 -6 -7 -7 -7 -8 -9 -9 -12 -12 -12 -12
6 6 6 6 5 6 8 7 6 6 6 5 3 3 4 3 3 3 3 2 2 2 1 1 0 -0 -0 -1 -2 -2 -3 -3 -3 -4 -5 -5 -6 -6 -7 -7 -8 -8 -9 -10 -12 -12 -12 -13 -13
6 6 6 6 6 6 8 7 7 6 6 6 3 4 3 3 3 3 3 2 2 1 1 0 -0 -1 -1 -2 -2 -3 -3 -3 -4 -5 -5 -6 -6 -7 -7 -8 -8 -9 -10 -12 -13 -13 -14 -14 -15
5 5 5 5 5 7 7 9 6 6 5 5 5 4 3 3 3 2 2 2 1 1 0 -0 -0 -1 -1 -2 -3 -3 -4 -5 -5 -5 -6 -6 -7 -8 -8 -9 -10 -10 -12 -12 -13 -14 -15 -16 -16
5 5 5 6 5 3 3 7 6 6 5 5 4 4 3 3 2 2 2 1 1 0 -0 -0 -1 -2 -2 -3 -4 -4 -4 -5 -5 -6 -6 -7 -8 -8 -9 -10 -11 -11 -12 -13 -14 -14 -16 -16 -16

GFSSGP_700_temp_015.txt.gz
Temp
9 9 8 8 8 10 12 13 13 11 9 8 7 8 8 8 8 8 7 7 7 7 7 7 7 7 6 6 6 6 6 6 6 6 6 6 6 5 5 5 5 5 5 5 5 5 5 5 5
8 8 8 8 9 12 13 14 12 9 8 7 7 7 7 6 7 7 8 7 7 6 6 6 7 6 6 5 5 5 5 6 5 6 6 6 5 5 5 5 5 5 4 4 4 4 4 4 4
8 8 7 9 10 12 13 12 10 8 7 8 8 7 6 5 6 7 7 6 6 6 6 6 6 5 5 5 5 5 5 5 5 5 5 5 5 5 4 4 4 4 4 4 4 4 4 4 4
8 7 7 9 11 12 12 11 9 8 8 7 7 7 6 5 6 6 6 6 5 5 4 4 5 5 5 5 5 5 5 5 5 5 5 5 5 4 4 4 4 4 4 4 3 3 3 3 3
7 8 9 10 11 12 10 9 8 8 6 7 7 7 6 6 6 6 6 5 5 4 3 3 4 4 4 4 4 5 5 5 5 5 5 5 4 4 4 4 3 3 3 3 3 3 3 3 3
7 8 10 11 12 11 10 10 7 6 6 7 7 6 5 6 5 5 5 5 5 3 3 4 3 4 4 4 4 5 5 5 5 5 4 4 4 4 4 3 3 3 3 3 3 3 2 2 2
7 9 10 11 11 10 10 8 5 7 8 6 5 7 6 6 5 5 5 3 4 3 3 4 4 4 4 5 5 5 5 5 5 4 4 4 4 3 3 3 3 3 3 2 2 2 2 2 2
7 9 10 11 11 9 8 8 6 7 6 6 7 6 7 6 6 5 4 5 4 4 3 3 4 4 4 5 5 5 5 5 4 4 4 4 3 3 3 3 2 2 2 2 2 2 2 2 2
6 8 10 11 9 8 8 7 6 7 6 6 5 6 6 5 5 5 5 4 4 4 4 4 4 4 4 4 4 5 5 4 4 4 4 3 3 3 2 2 2 2 2 2 1 1 1 1 1
7 9 11 9 9 7 7 7 6 7 7 6 6 5 6 6 5 5 5 5 5 5 4 4 4 4 4 5 5 4 4 4 4 4 3 3 3 3 2 2 2 1 1 1 1 1 1 2 0
7 9 9 7 9 8 7 7 6 6 6 6 5 7 6 5 5 5 5 5 5 5 5 5 5 5 4 5 4 4 3 3 3 3 3 3 3 2 2 2 0 1 1 -0 0 0 1 1 1
8 8 9 9 8 8 8 8 7 4 4 5 5 6 6 6 5 5 5 5 5 5 5 5 5 5 4 4 3 3 3 3 3 3 2 3 2 2 2 1 1 0 -1 0 0 -0 0 1 1
7 8 8 8 8 8 7 7 7 7 7 6 5 6 6 6 5 5 3 3 5 5 4 4 4 4 4 4 3 3 3 3 1 2 2 2 1 1 1 1 1 0 -0 -1 -0 -0 0 -0 -0
8 8 8 8 8 8 8 8 8 7 7 5 5 4 4 4 4 3 3 3 4 4 4 4 4 4 4 4 4 3 2 1 1 2 3 2 1 1 0 0 0 -0 -1 -1 -1 -0 -0 -0 -1
7 8 8 8 7 8 7 8 7 7 6 5 5 5 4 4 4 3 3 4 3 4 4 4 4 4 4 4 3 2 1 1 1 3 3 2 1 1 0 -1 -0 -1 -1 -1 -0 -0 -1 -1 -1
8 8 9 8 8 8 8 9 7 6 7 6 6 5 5 4 4 3 3 4 4 3 4 4 4 4 3 3 2 2 1 2 1 2 2 1 1 0 -0 0 0 -0 -1 -1 -1 -1 -1 -1 -2
8 9 9 8 8 8 9 8 7 6 7 7 6 5 4 4 5 5 5 5 4 4 5 4 4 4 3 2 2 2 1 1 1 1 1 1 1 1 1 0 -0 -1 -1 -2 -2 -1 -2 -2 -2
9 10 10 9 8 9 9 8 7 7 7 6 6 5 5 5 5 5 5 5 4 3 4 4 3 3 3 2 2 1 1 1 1 1 1 1 1 0 -0 -0 -1 -1 -2 -2 -2 -2 -2 -2 -2
9 10 10 9 8 9 9 8 7 7 7 6 6 6 5 5 6 5 5 5 4 4 4 4 4 3 3 3 2 2 1 1 1 1 1 0 -1 -1 -1 -1 -1 -1 -1 -2 -2 -2 -2 -2 -3
9 10 10 9 8 8 9 9 8 7 7 7 6 6 5 5 6 5 5 5 5 4 4 4 3 3 3 2 2 1 1 1 0 -0 -1 -1 -1 -1 -1 -1 -2 -2 -2 -3 -3 -3 -3 -3 -4
9 10 9 9 8 8 9 9 7 7 7 7 6 6 5 4 6 6 5 5 5 4 4 3 4 3 3 2 1 1 1 -0 -0 0 -0 -0 -1 -1 -2 -2 -2 -2 -3 -3 -3 -4 -4 -4 -5
9 9 9 9 8 9 9 11 9 7 8 8 7 5 5 4 6 6 5 5 4 4 3 4 3 2 2 1 1 0 -2 -2 -1 -1 -1 -2 -2 -2 -2 -2 -2 -3 -3 -4 -4 -5 -5 -6 -6
7 8 8 9 9 9 10 10 7 7 7 7 7 6 5 6 6 5 5 4 4 4 4 3 2 2 1 1 1 0 -1 -1 -1 -1 -1 -1 -2 -3 -3 -3 -3 -4 -4 -5 -5 -5 -6 -7 -7
8 8 8 9 9 10 10 10 10 8 8 7 6 5 5 5 6 5 5 4 4 4 3 3 2 2 1 1 1 0 -0 -1 -1 -1 -2 -2 -2 -3 -3 -3 -4 -5 -5 -5 -6 -7 -7 -8 -10
8 8 9 10 10 10 9 10 10 10 8 8 5 5 3 5 5 5 4 4 4 3 3 2 2 1 1 1 1 -0 -1 -1 -1 -2 -2 -2 -3 -3 -3 -4 -5 -5 -6 -6 -7 -8 -9 -11 -12
8 9 9 8 9 11 9 10 10 9 8 7 6 4 4 5 5 4 4 4 3 3 3 2 2 2 1 1 0 -1 -1 -1 -2 -3 -3 -3 -3 -4 -4 -5 -5 -6 -6 -7 -8 -9 -11 -12 -13
8 7 8 8 7 8 9 10 9 8 7 6 5 4 3 4 4 4 4 3 3 3 2 2 1 1 1 1 -0 -1 -2 -2 -3 -3 -3 -4 -4 -5 -5 -5 -6 -6 -7 -8 -11 -12 -12 -13 -14
6 7 7 7 7 8 10 10 10 7 6 5 5 4 3 2 2 3 3 3 3 3 2 1 1 1 0 -0 -1 -2 -2 -3 -3 -4 -4 -4 -5 -5 -5 -6 -7 -8 -8 -11 -12 -12 -14 -14 -14
6 7 7 7 7 8 8 10 8 7 6 6 5 4 3 2 1 2 3 3 3 2 2 1 1 0 -0 -0 -1 -2 -3 -3 -4 -4 -5 -5 -5 -5 -6 -7 -8 -9 -10 -11 -11 -13 -14 -14 -14
6 7 7 7 8 6 6 7 7 7 6 5 5 4 3 2 1 0 3 3 2 2 1 1 1 -0 -1 -1 -2 -3 -3 -4 -5 -5 -5 -5 -6 -6 -7 -8 -8 -10 -11 -12 -13 -14 -14 -14 -15